Weather in Ibiza

Spain     38°54′22″N   1°25′08″E
temp.,
°C
wind,
m/s
gust,
m/s
humid.,
%
clouds,
%
prec.,
mm/h
press.,
hPa
HPBL,
m
18 april, sun
sun1823:00+9s33810 0.0 1019290
02:00+10sw34790 0.0 1019331
05:00+10wnw24700 0.0 1019205
08:00+10nnw34702 0.0 1019128
11:00+13nnw33545 0.0 10211087
14:00+14nnw225075 0.1 10211132
17:00+14se235655 0.1 10201119
20:00+13ssw34650 0.1 1020400
19 april, mon
mon1923:00+12ssw45660 0.0 1022295
02:00+12ssw58680 0.0 1020434
05:00+12sw58740 0.0 1019376
08:00+13sw69804 0.0 1018512
11:00+16sw78705 0.0 1018813
14:00+17sw776699 0.0 1017845
17:00+17sw5564100 0.0 1016696
20:00+15s3477100 0.0 1015186
20 april, tue
tue2023:00+14s227899 0.0 101620
02:00+14s337697 0.0 101562
05:00+14ssw4580100 0.0 1014136
08:00+14sw2484100 0.0 1014172
11:00+17s2168100 0.0 1014349
14:00+18sse446311 0.1 1014847
17:00+18sse44615 0.0 1013715
20:00+16s337384 0.0 1014123
21 april, wed
wed2123:00+14sw0185100 0.0 101511
02:00+14ese1185100 0.2 101412
05:00+14sse2281100 0.0 101328
08:00+14sse117876 0.0 101314
11:00+17ene216295 0.0 1014556
14:00+17ese4365100 0.0 1014809
17:00+17ese4467100 0.0 1013561
20:00+16e3479100 0.0 1013289
22 april, thu
thu2223:00+15ene3584100 0.0 1015238
02:00+15e2489100 0.1 1015206
05:00+14e4584100 0.9 1014303
08:00+14ne2282100 0.9 1015161
11:00+15nne3479100 0.0 1017345
14:00+17ne557124 0.1 1017781
17:00+17ne546913 0.1 1017782
20:00+16ne45775 0.1 1018356